logo tempoitalia

Diretta Meteo Francoforte-sul-Meno, Germaniasabato 28 marzo ore 21:50

Mappa
Sereno 11 °C Sereno 24 Ore: T.min 7 T.max 18
Ponente Nord Km/h 20.3 Punto di rugiada: -0 °C Umidità: 46% Visibilità: 10 Km
Il sole sorge alle: 06:06 Il sole tramonta alle: 18:53
28 Marzo 2020 21:50 tempo osservato: Sereno Sereno 11 46 1020 vento: Nord N 20.3
28 Marzo 2020 21:20 tempo osservato: Sereno Sereno 11 46 1019 vento: Nord N 22.2
28 Marzo 2020 20:50 tempo osservato: Sereno Sereno 12 40 1019 vento: Nord N 24
28 Marzo 2020 20:20 tempo osservato: Sereno Sereno 13 37 1019 vento: Nord N 22.2
28 Marzo 2020 19:20 tempo osservato: Sereno Sereno 14 32 1018 vento: Nord N/NE 20.3
28 Marzo 2020 18:50 tempo osservato: Sereno Sereno 15 33 1017 vento: Nord N/NE 22.2
28 Marzo 2020 18:20 tempo osservato: Sereno Sereno 15 33 1017 vento: Nord NE 25.9
28 Marzo 2020 17:50 tempo osservato: Sereno Sereno 16 31 1017 vento: Nord N/NE 22.2
28 Marzo 2020 16:50 tempo osservato: Sereno Sereno 17 31 1017 vento: Nord N 22.2
28 Marzo 2020 16:20 tempo osservato: Sereno Sereno 18 31 1017 vento: Nord N/NE 24
28 Marzo 2020 15:50 tempo osservato: Sereno Sereno 18 31 1017 vento: Nord N/NE 24
28 Marzo 2020 15:20 tempo osservato: Sereno Sereno 18 31 1017 vento: Nord NE 22.2
28 Marzo 2020 14:50 tempo osservato: Sereno Sereno 18 31 1017 vento: Nord N/NE 18.5
28 Marzo 2020 14:20 tempo osservato: Sereno Sereno 18 34 1017 vento: Nord N/NE 20.3
28 Marzo 2020 13:50 tempo osservato: Sereno Sereno 18 34 1018 vento: Nord N/NE 16.7
28 Marzo 2020 13:20 tempo osservato: Sereno Sereno 17 36 1018 vento: Nord N/NE 20.3
28 Marzo 2020 12:50 tempo osservato: Sereno Sereno 17 39 1018 vento: Nord N/NE 16.7
28 Marzo 2020 12:20 tempo osservato: Sereno Sereno 16 41 1018 vento: Nord N/NE 18.5
28 Marzo 2020 11:50 tempo osservato: Sereno Sereno 16 41 1018 vento: Nord N/NE 18.5
28 Marzo 2020 11:20 tempo osservato: Sereno Sereno 15 41 1019 vento: Nord NE 16.7
28 Marzo 2020 10:50 tempo osservato: Sereno Sereno 14 47 1019 vento: Nord N/NE 14.8
28 Marzo 2020 10:20 tempo osservato: Sereno Sereno 13 47 1019 vento: Nord N/NE 22.2
28 Marzo 2020 09:50 tempo osservato: Sereno Sereno 13 47 1019 vento: Nord NE 20.3
28 Marzo 2020 09:20 tempo osservato: Sereno Sereno 12 50 1019 vento: Nord NE 20.3
28 Marzo 2020 08:50 tempo osservato: Sereno Sereno 11 50 1019 vento: Nord NE 20.3
28 Marzo 2020 08:20 tempo osservato: Sereno Sereno 10 53 1018 vento: Nord NE 18.5
28 Marzo 2020 07:50 tempo osservato: Sereno Sereno 10 53 1018 vento: Nord NE 14.8
28 Marzo 2020 07:20 tempo osservato: Sereno Sereno 9 57 1018 vento: Nord NE 16.7
28 Marzo 2020 06:50 tempo osservato: Sereno Sereno 8 61 1018 vento: Nord NE 18.5
28 Marzo 2020 06:20 tempo osservato: Sereno Sereno 8 61 1018 vento: Nord NE 20.3
28 Marzo 2020 05:50 tempo osservato: Sereno Sereno 7 65 1018 vento: Nord NE 18.5
28 Marzo 2020 05:20 tempo osservato: Sereno Sereno 7 65 1018 vento: Nord NE 16.7
28 Marzo 2020 04:50 tempo osservato: Sereno Sereno 7 65 1017 vento: Nord NE 16.7
28 Marzo 2020 04:20 tempo osservato: Sereno Sereno 8 61 1017 vento: Nord N/NE 14.8
28 Marzo 2020 03:50 tempo osservato: Sereno Sereno 8 61 1017 vento: Nord N/NE 13
28 Marzo 2020 03:20 tempo osservato: Sereno Sereno 9 57 1017 vento: Nord N/NE 13
28 Marzo 2020 02:50 tempo osservato: Sereno Sereno 10 53 1017 vento: Nord N/NE 13
28 Marzo 2020 02:20 tempo osservato: Sereno Sereno 10 53 1017 vento: Nord N/NE 16.7
28 Marzo 2020 01:50 tempo osservato: Sereno Sereno 11 53 1017 vento: Nord N/NE 20.3
28 Marzo 2020 01:20 tempo osservato: Sereno Sereno 11 53 1017 vento: Nord N/NE 24
28 Marzo 2020 00:50 tempo osservato: Sereno Sereno 11 53 1017 vento: Nord N/NE 22.2
28 Marzo 2020 00:20 tempo osservato: Sereno Sereno 11 53 1017 vento: Nord N/NE 22.2
27 Marzo 2020 23:50 tempo osservato: Sereno Sereno 12 50 1017 vento: Nord N/NE 24
27 Marzo 2020 23:20 tempo osservato: Sereno Sereno 11 53 1017 vento: Nord N/NE 22.2
27 Marzo 2020 22:50 tempo osservato: Sereno Sereno 12 50 1017 vento: Nord N/NE 22.2
27 Marzo 2020 22:20 tempo osservato: Sereno Sereno 12 50 1017 vento: Nord N/NE 20.3
27 Marzo 2020 21:50 tempo osservato: Sereno Sereno 13 47 1017 vento: Nord N/NE 18.5